Regional Weather Roundup
Issued by NWS

Home | Current Version | Previous Version | Text Only | Print | Product List | Glossary On
Versions: 1 2 3 4 5 6 7 8 9 10 11 12 13 14 15 16 17 18 19 20 21 22 23 24 25 26 27 28 29 30 31 32 33 34 35 36 37 38 39 40 41 42 43 44 45 46 47 48 49 50
000
ASUS43 KBIS 041610
RWRND

NORTH DAKOTA REGIONAL WEATHER ROUNDUP
NATIONAL WEATHER SERVICE BISMARCK ND
1100 AM CDT MON MAY 04 2015

NOTE: "FAIR" INDICATES FEW OR NO CLOUDS BELOW 12,000 FEET WITH NO
SIGNIFICANT WEATHER AND/OR OBSTRUCTIONS TO VISIBILITY.


NDZ001>003-009>011-017-041700-
NORTHWEST NORTH DAKOTA

CITY           SKY/WX    TMP DP  RH WIND       PRES   REMARKS
WILLISTON      MOSUNNY   61  27  27 S9        30.16F
MINOT          MOSUNNY   61  22  22 S10       30.20R
MINOT AFB      SUNNY     64  25  22 SW9       30.19R
$$

NDZ018>021-031>035-040>046-041700-
SOUTHWEST NORTH DAKOTA

CITY           SKY/WX    TMP DP  RH WIND       PRES   REMARKS
BISMARCK       MOSUNNY   57  31  37 CALM      30.24S
DICKINSON      MOSUNNY   60  25  26 S25G32    30.17F
GARRISON         N/A     59  29  31 S13       30.21R
HETTINGER ARPT PTSUNNY   55  32  41 S22G29    30.22S
$$

NDZ004>008-012>016-024-026-027-054-041700-
NORTHEAST NORTH DAKOTA

CITY           SKY/WX    TMP DP  RH WIND       PRES   REMARKS
GRAND FORKS    MOSUNNY   61  32  33 SE5       30.22S
GRND FRKS AFB  SUNNY     60  36  40 S5        30.22S
DEVILS LAKE    SUNNY     57  36  44 SW9       30.21S
$$

NDZ022-023-025-028>030-036>039-047>053-041700-
SOUTHEAST NORTH DAKOTA

CITY           SKY/WX    TMP DP  RH WIND       PRES   REMARKS
FARGO          MOSUNNY   62  31  31 CALM      30.22R
JAMESTOWN      PTSUNNY   59  32  36 CALM      30.23R
$$



USA.gov is the U.S. government's official web portal to all federal, state and local government web resources and services.